Regional Weather Roundup
Issued by NWS Huntsville, AL

Home | Current Version | Previous Version | Text Only | Print | Product List | Glossary On
Versions: 1 2 3 4 5 6 7 8 9 10 11 12 13 14 15 16 17 18 19 20 21 22 23 24 25 26 27 28 29 30 31 32 33 34 35 36 37 38 39 40 41 42 43 44 45 46 47 48 49 50
000
ASUS44 KHUN 122110
RWRHUN

WEATHER ROUNDUP FOR THE TENNESSEE VALLEY
NATIONAL WEATHER SERVICE HUNTSVILLE AL
300 PM CST TUE DEC 12 2017

ALZ001>004-122200-
NORTHWEST ALABAMA

CITY           SKY/WX    TMP DP  RH WIND       PRES   REMARKS
COURTLAND HCN    N/A     48 N/A N/A NW14        N/A
RUSSELLVILLE     N/A     48 N/A N/A MISG        N/A
SHOALS AIRPORT SUNNY     49  21  33 NW15G26   30.07S
SHOALS TVA RES   N/A     48 N/A N/A MISG        N/A
$$

ALZ005>007-016-122200-
NORTH CENTRAL ALABAMA

CITY           SKY/WX    TMP DP  RH WIND       PRES   REMARKS
CULLMAN AG STN   N/A     48 N/A N/A NW10        N/A
DECATUR AP     SUNNY     48  25  40 NW15G26   30.04S
HUNTSVILLE AP  MOSUNNY   50  27  40 NW20G26   30.03S
MERIDIANVILLE  SUNNY     46  21  36 W20G25    30.02F
REDSTONE ARSN  SUNNY     48  25  40 NW13G21   30.01S
VINEMONT AP    FAIR      49  25  39 NW10G16   30.04R
$$

ALZ008>010-122200-
NORTHEAST ALABAMA

CITY           SKY/WX    TMP DP  RH WIND       PRES   REMARKS
ALBERTVILLE    SUNNY     46  30  53 NW15G24   29.99R
FORT PAYNE     MOSUNNY   46  25  42 N10G20    29.97S
SCOTTSBORO AP  SUNNY     48  23  37 NW9G17    30.00S
SCOTTSBORO HCN   N/A     48 N/A N/A MISG        N/A
VALLEY HEAD      N/A     45 N/A N/A MISG        N/A
$$

TNZ076-096-097-122200-
SOUTHEASTERN MIDDLE TENNESSEE

CITY           SKY/WX    TMP DP  RH WIND       PRES   REMARKS
TULLAHOMA      SUNNY     43  18  36 NW15G23   30.00S
WINCHESTER       N/A     41  25  52 N12       30.00F
$$

...SURROUNDING SITES...

CITY           SKY/WX    TMP DP  RH WIND       PRES   REMARKS
ATLANTA        MOSUNNY   48  29  47 W18G29    29.91F
ANNISTON       SUNNY     51  29  42 W14       29.99S
BIRMINGHAM     SUNNY     52  26  36 NW18G28   30.04F
CHATTANOOGA    MOSUNNY   44  20  38 NW18G25   29.98S
CORINTH        FAIR      48  19  32 NW15G24   30.11R
DALTON         MOSUNNY   45  28  53 NW16      29.98R
GADSDEN        NOT AVBL
GOLDEN TRNGL   NOT AVBL
HALEYVILLE     FAIR      48  26  42 NW10G20   30.07R
JACKSON TN     SUNNY     44  20  38 NW15      30.14F
MEMPHIS        MOSUNNY   48  23  37 N12       30.17R
NASHVILLE      MOSUNNY   41  10  28 NW17G24   30.07S
OXFORD MS      FAIR      50  23  34 NW12G17   30.15S
ROME           SUNNY     49  26  41 W17G23    29.96R
SAVANNAH       SUNNY     46  23  39 NW9G16    30.10R
SELMER         SUNNY     45  19  36 NW6G17    30.11R
TUPELO         SUNNY     52  19  27 NW14G22   30.11R
TUSCALOOSA     SUNNY     55  32  41 NW10G22   30.06F
$$

...GULF COAST WEATHER...

CITY           SKY/WX    TMP DP  RH WIND       PRES   REMARKS
GULFPORT       SUNNY     62  34  35 NW15      30.07F
PASCAGOULA     SUNNY     62  31  31 NW10G17   30.06F
MOBILE         SUNNY     61  34  36 NW12      30.07S
GULF SHORES    CLEAR     61  33  35 NW12G21   30.05R
PENSACOLA      SUNNY     62  32  32 N13       30.03R
DESTIN         SUNNY     64  31  28 NW18      30.00S
PANAMA CITY    SUNNY     62  33  34 NW17      29.97R
APPALACHICOLA  SUNNY     65  36  34 NW14      29.95R
$$




USA.gov is the U.S. government's official web portal to all federal, state and local government web resources and services.